Time,TemperatureF,DewpointF,PressureIn,WindDirection,WindDirectionDegrees,WindSpeedMPH,WindSpeedGustMPH,Humidity,HourlyPrecipIn,Conditions,Clouds,dailyrainin,SoftwareType,DateUTC
2013-02-27 00:02:00,39.2,33.6,29.91,WSW,255,1.0,1.0,80,0.00,,,0.00,meteohub,2013-02-27 06:02:00,
2013-02-27 00:07:00,39.0,33.4,29.91,WSW,255,1.0,1.0,80,0.00,,,0.00,meteohub,2013-02-27 06:07:00,
2013-02-27 00:12:00,38.8,33.3,29.91,WSW,255,1.0,2.0,80,0.00,,,0.00,meteohub,2013-02-27 06:12:00,
2013-02-27 00:17:00,38.8,33.4,29.91,WSW,255,0.0,2.0,81,0.00,,,0.00,meteohub,2013-02-27 06:17:00,
2013-02-27 00:22:00,38.7,33.3,29.91,WSW,255,1.0,2.0,81,0.00,,,0.00,meteohub,2013-02-27 06:22:00,
2013-02-27 00:27:00,38.8,33.4,29.91,WSW,255,0.0,2.0,81,0.00,,,0.00,meteohub,2013-02-27 06:27:00,
2013-02-27 00:32:00,38.8,33.3,29.91,WSW,255,0.0,2.0,80,0.00,,,0.00,meteohub,2013-02-27 06:32:00,
2013-02-27 00:42:00,39.7,33.4,29.91,WSW,255,0.0,2.0,78,0.00,,,0.00,meteohub,2013-02-27 06:42:00,
2013-02-27 00:52:00,39.9,33.6,29.91,WSW,255,1.0,3.0,78,0.00,,,0.00,meteohub,2013-02-27 06:52:00,
2013-02-27 00:57:00,39.7,33.8,29.92,WSW,255,2.0,3.0,79,0.00,,,0.00,meteohub,2013-02-27 06:57:00,
2013-02-27 01:02:00,39.4,33.8,29.92,WSW,255,0.0,3.0,80,0.00,,,0.00,meteohub,2013-02-27 07:02:00,
2013-02-27 01:12:00,38.5,33.1,29.93,WSW,255,0.0,2.0,81,0.00,,,0.00,meteohub,2013-02-27 07:12:00,
2013-02-27 01:17:00,38.1,33.1,29.93,WSW,255,1.0,2.0,82,0.00,,,0.00,meteohub,2013-02-27 07:17:00,
2013-02-27 01:22:00,37.9,32.9,29.93,WSW,255,1.0,2.0,82,0.00,,,0.00,meteohub,2013-02-27 07:22:00,
2013-02-27 01:27:00,37.8,33.4,29.93,WSW,255,0.0,2.0,84,0.00,,,0.00,meteohub,2013-02-27 07:27:00,
2013-02-27 01:32:00,37.6,32.9,29.93,WSW,255,1.0,2.0,83,0.00,,,0.00,meteohub,2013-02-27 07:32:00,
2013-02-27 01:37:00,37.2,32.9,29.93,WSW,255,0.0,2.0,84,0.00,,,0.00,meteohub,2013-02-27 07:37:00,
2013-02-27 01:42:00,37.2,32.9,29.93,WSW,255,1.0,2.0,84,0.00,,,0.00,meteohub,2013-02-27 07:42:00,
2013-02-27 01:47:00,37.2,32.9,29.93,WSW,255,1.0,2.0,84,0.00,,,0.00,meteohub,2013-02-27 07:47:00,
2013-02-27 01:57:00,37.2,32.9,29.92,WSW,255,1.0,2.0,84,0.00,,,0.00,meteohub,2013-02-27 07:57:00,
2013-02-27 02:02:00,37.4,33.1,29.93,WSW,255,0.0,1.0,84,0.00,,,0.00,meteohub,2013-02-27 08:02:00,
2013-02-27 02:12:00,37.4,33.1,29.92,WSW,255,0.0,1.0,84,0.00,,,0.00,meteohub,2013-02-27 08:12:00,
2013-02-27 02:22:00,37.4,33.1,29.92,WSW,255,0.0,0.0,84,0.00,,,0.00,meteohub,2013-02-27 08:22:00,
2013-02-27 02:27:00,37.6,33.3,29.92,WSW,255,0.0,1.0,84,0.00,,,0.00,meteohub,2013-02-27 08:27:00,
2013-02-27 02:32:00,37.6,33.3,29.92,WSW,255,0.0,1.0,84,0.00,,,0.00,meteohub,2013-02-27 08:32:00,
2013-02-27 02:37:00,37.6,33.3,29.92,WSW,255,0.0,1.0,84,0.00,,,0.00,meteohub,2013-02-27 08:37:00,
2013-02-27 02:42:00,37.6,32.9,29.92,WSW,255,0.0,0.0,83,0.00,,,0.00,meteohub,2013-02-27 08:42:00,
2013-02-27 02:52:00,37.2,32.9,29.92,WSW,255,0.0,1.0,84,0.00,,,0.00,meteohub,2013-02-27 08:52:00,
2013-02-27 02:57:00,37.0,32.7,29.92,WSW,255,0.0,1.0,84,0.00,,,0.00,meteohub,2013-02-27 08:57:00,
2013-02-27 03:02:00,36.9,32.5,29.92,WSW,255,0.0,1.0,84,0.00,,,0.00,meteohub,2013-02-27 09:02:00,
2013-02-27 03:07:00,36.5,32.4,29.91,WSW,255,0.0,1.0,85,0.00,,,0.00,meteohub,2013-02-27 09:07:00,
2013-02-27 03:17:00,36.0,32.2,29.91,WSW,255,0.0,0.0,86,0.00,,,0.00,meteohub,2013-02-27 09:17:00,
2013-02-27 03:22:00,35.8,32.0,29.91,WSW,255,0.0,0.0,86,0.00,,,0.00,meteohub,2013-02-27 09:22:00,
2013-02-27 03:27:00,35.6,32.2,29.91,WSW,255,0.0,0.0,87,0.00,,,0.00,meteohub,2013-02-27 09:27:00,
2013-02-27 03:37:00,35.4,32.2,29.91,WSW,255,0.0,0.0,88,0.00,,,0.00,meteohub,2013-02-27 09:37:00,
2013-02-27 03:42:00,35.6,32.4,29.90,WSW,255,0.0,0.0,88,0.00,,,0.00,meteohub,2013-02-27 09:42:00,
2013-02-27 03:47:00,35.6,32.4,29.90,WSW,255,0.0,0.0,88,0.00,,,0.00,meteohub,2013-02-27 09:47:00,
2013-02-27 03:52:00,35.8,32.5,29.90,WSW,255,0.0,0.0,88,0.00,,,0.00,meteohub,2013-02-27 09:52:00,
2013-02-27 03:57:00,36.1,32.9,29.91,WSW,255,0.0,0.0,88,0.00,,,0.00,meteohub,2013-02-27 09:57:00,
2013-02-27 04:02:00,36.7,32.9,29.91,WSW,255,0.0,0.0,86,0.00,,,0.00,meteohub,2013-02-27 10:02:00,
2013-02-27 04:07:00,36.9,33.1,29.91,WSW,255,0.0,0.0,86,0.00,,,0.00,meteohub,2013-02-27 10:07:00,
2013-02-27 04:12:00,36.9,33.1,29.91,WSW,255,0.0,0.0,86,0.00,,,0.00,meteohub,2013-02-27 10:12:00,
2013-02-27 04:17:00,36.9,32.7,29.92,WSW,255,0.0,1.0,85,0.00,,,0.00,meteohub,2013-02-27 10:17:00,
2013-02-27 04:22:00,36.9,32.7,29.92,WSW,255,0.0,1.0,85,0.00,,,0.00,meteohub,2013-02-27 10:22:00,
2013-02-27 04:27:00,37.6,33.3,29.92,NNE,26,0.0,1.0,84,0.00,,,0.00,meteohub,2013-02-27 10:27:00,
2013-02-27 04:32:00,38.3,33.3,29.93,NNE,26,0.0,2.0,82,0.00,,,0.00,meteohub,2013-02-27 10:32:00,
2013-02-27 04:37:00,38.8,33.3,29.94,NNE,26,0.0,2.0,80,0.00,,,0.00,meteohub,2013-02-27 10:37:00,
2013-02-27 04:42:00,39.2,33.3,29.94,NNE,26,0.0,2.0,79,0.00,,,0.00,meteohub,2013-02-27 10:42:00,
2013-02-27 04:47:00,39.0,33.1,29.93,NNE,26,0.0,1.0,79,0.00,,,0.00,meteohub,2013-02-27 10:47:00,
2013-02-27 04:57:00,38.7,32.7,29.94,NNE,26,0.0,1.0,79,0.00,,,0.00,meteohub,2013-02-27 10:57:00,
2013-02-27 05:02:00,38.3,32.7,29.94,NNE,26,0.0,1.0,80,0.00,,,0.00,meteohub,2013-02-27 11:02:00,
2013-02-27 05:07:00,37.9,32.7,29.94,NNE,26,0.0,1.0,81,0.00,,,0.00,meteohub,2013-02-27 11:07:00,
2013-02-27 05:17:00,37.8,32.5,29.95,NNE,26,0.0,1.0,81,0.00,,,0.00,meteohub,2013-02-27 11:17:00,
2013-02-27 05:22:00,37.8,32.5,29.95,NNE,26,0.0,1.0,81,0.00,,,0.00,meteohub,2013-02-27 11:22:00,
2013-02-27 05:27:00,37.6,32.5,29.94,NNE,26,1.0,2.0,82,0.00,,,0.00,meteohub,2013-02-27 11:27:00,
2013-02-27 05:32:00,37.0,32.4,29.94,NNE,26,1.0,2.0,83,0.00,,,0.00,meteohub,2013-02-27 11:32:00,
2013-02-27 05:37:00,36.7,32.4,29.94,NNE,26,1.0,3.0,84,0.00,,,0.00,meteohub,2013-02-27 11:37:00,
2013-02-27 05:47:00,36.0,32.2,29.95,North,0,2.0,3.0,86,0.00,,,0.00,meteohub,2013-02-27 11:47:00,
2013-02-27 05:52:00,36.0,32.5,29.95,North,0,2.0,4.0,87,0.00,,,0.00,meteohub,2013-02-27 11:52:00,
2013-02-27 06:02:00,36.3,32.5,29.96,NNW,334,2.0,4.0,86,0.00,,,0.00,meteohub,2013-02-27 12:02:00,
2013-02-27 06:07:00,36.5,32.7,29.97,NW,323,4.0,4.0,86,0.00,,,0.00,meteohub,2013-02-27 12:07:00,
2013-02-27 06:12:00,36.9,33.1,29.98,NW,324,2.0,5.0,86,0.00,,,0.00,meteohub,2013-02-27 12:12:00,
2013-02-27 06:17:00,36.9,32.7,29.99,NW,324,2.0,5.0,85,0.00,,,0.00,meteohub,2013-02-27 12:17:00,
2013-02-27 06:22:00,36.9,32.7,29.99,NW,311,2.0,5.0,85,0.00,,,0.00,meteohub,2013-02-27 12:22:00,
2013-02-27 06:27:00,36.7,32.4,30.00,NW,322,3.0,5.0,84,0.00,,,0.00,meteohub,2013-02-27 12:27:00,
2013-02-27 06:32:00,36.7,32.4,30.00,NW,321,3.0,5.0,84,0.00,,,0.00,meteohub,2013-02-27 12:32:00,
2013-02-27 06:42:00,36.1,31.8,30.01,NNW,332,3.0,5.0,84,0.00,,,0.00,meteohub,2013-02-27 12:42:00,
2013-02-27 06:47:00,36.1,31.8,30.01,NW,304,1.0,5.0,84,0.00,,,0.00,meteohub,2013-02-27 12:47:00,
2013-02-27 06:52:00,36.0,31.6,30.01,NW,321,4.0,6.0,84,0.00,,,0.00,meteohub,2013-02-27 12:52:00,
2013-02-27 06:57:00,36.0,31.6,30.01,NNW,329,3.0,6.0,84,0.00,,,0.00,meteohub,2013-02-27 12:57:00,
2013-02-27 07:02:00,36.0,31.6,30.01,NNW,327,1.0,6.0,84,0.00,,,0.00,meteohub,2013-02-27 13:02:00,
2013-02-27 07:07:00,36.0,31.6,30.02,NNE,23,2.0,6.0,84,0.00,,,0.00,meteohub,2013-02-27 13:07:00,
2013-02-27 07:12:00,36.0,31.6,30.02,North,355,1.0,6.0,84,0.00,,,0.00,meteohub,2013-02-27 13:12:00,
2013-02-27 07:22:00,36.1,31.8,30.02,NNE,13,1.0,5.0,84,0.00,,,0.00,meteohub,2013-02-27 13:22:00,
2013-02-27 07:27:00,36.1,31.8,30.02,North,9,2.0,5.0,84,0.00,,,0.00,meteohub,2013-02-27 13:27:00,
2013-02-27 07:32:00,36.3,32.0,30.02,NNE,30,4.0,5.0,84,0.00,,,0.00,meteohub,2013-02-27 13:32:00,
2013-02-27 07:37:00,36.7,32.4,30.03,NNE,24,1.0,5.0,84,0.00,,,0.00,meteohub,2013-02-27 13:37:00,
2013-02-27 07:42:00,36.9,32.5,30.03,NNE,24,3.0,5.0,84,0.00,,,0.00,meteohub,2013-02-27 13:42:00,
2013-02-27 07:47:00,37.0,32.4,30.03,NNE,22,1.0,5.0,83,0.00,,,0.00,meteohub,2013-02-27 13:47:00,
2013-02-27 07:52:00,37.2,32.5,30.04,North,5,4.0,4.0,83,0.00,,,0.00,meteohub,2013-02-27 13:52:00,
2013-02-27 07:57:00,37.8,33.1,30.04,NNW,338,2.0,5.0,83,0.00,,,0.00,meteohub,2013-02-27 13:57:00,
2013-02-27 08:02:00,38.1,33.1,30.04,NNE,19,2.0,5.0,82,0.00,,,0.00,meteohub,2013-02-27 14:02:00,
2013-02-27 08:07:00,38.5,33.4,30.05,NNW,336,2.0,5.0,82,0.00,,,0.00,meteohub,2013-02-27 14:07:00,
2013-02-27 08:17:00,39.6,34.2,30.06,North,5,2.0,5.0,81,0.00,,,0.00,meteohub,2013-02-27 14:17:00,
2013-02-27 08:22:00,40.5,34.7,30.07,North,355,3.0,5.0,80,0.00,,,0.00,meteohub,2013-02-27 14:22:00,
2013-02-27 08:27:00,41.2,34.9,30.07,NW,304,1.0,7.0,78,0.00,,,0.00,meteohub,2013-02-27 14:27:00,
2013-02-27 08:37:00,42.1,35.4,30.07,North,355,4.0,7.0,77,0.00,,,0.00,meteohub,2013-02-27 14:37:00,
2013-02-27 08:42:00,42.4,35.8,30.07,NNE,32,3.0,7.0,77,0.00,,,0.00,meteohub,2013-02-27 14:42:00,
2013-02-27 08:47:00,43.0,35.6,30.08,NE,44,6.0,7.0,75,0.00,,,0.00,meteohub,2013-02-27 14:47:00,
2013-02-27 08:57:00,43.9,35.8,30.08,North,355,3.0,8.0,73,0.00,,,0.00,meteohub,2013-02-27 14:57:00,
2013-02-27 09:07:00,45.0,36.5,30.08,NNE,22,3.0,8.0,72,0.00,,,0.00,meteohub,2013-02-27 15:07:00,
2013-02-27 09:17:00,46.2,36.0,30.08,North,355,3.0,10.0,67,0.00,,,0.00,meteohub,2013-02-27 15:17:00,
2013-02-27 09:22:00,46.6,35.4,30.08,NE,51,3.0,10.0,65,0.00,,,0.00,meteohub,2013-02-27 15:22:00,
2013-02-27 09:27:00,47.1,35.2,30.08,NNW,328,3.0,8.0,63,0.00,,,0.00,meteohub,2013-02-27 15:27:00,
2013-02-27 09:37:00,48.0,34.9,30.08,NW,304,2.0,8.0,60,0.00,,,0.00,meteohub,2013-02-27 15:37:00,
2013-02-27 09:47:00,48.7,33.8,30.08,NNW,336,3.0,8.0,56,0.00,,,0.00,meteohub,2013-02-27 15:47:00,
2013-02-27 09:57:00,49.6,32.7,30.07,ENE,76,3.0,8.0,52,0.00,,,0.00,meteohub,2013-02-27 15:57:00,
2013-02-27 10:02:00,50.0,33.1,30.07,NE,40,7.0,8.0,52,0.00,,,0.00,meteohub,2013-02-27 16:02:00,
2013-02-27 10:07:00,50.2,33.3,30.06,NNW,348,3.0,8.0,52,0.00,,,0.00,meteohub,2013-02-27 16:07:00,
2013-02-27 10:12:00,50.7,34.2,30.07,NE,52,3.0,7.0,53,0.00,,,0.00,meteohub,2013-02-27 16:12:00,
2013-02-27 10:17:00,51.3,34.2,30.07,ENE,60,3.0,7.0,52,0.00,,,0.00,meteohub,2013-02-27 16:17:00,
2013-02-27 10:22:00,51.6,33.6,30.07,NNW,341,3.0,7.0,50,0.00,,,0.00,meteohub,2013-02-27 16:22:00,
2013-02-27 10:32:00,52.3,34.7,30.08,NNE,15,2.0,9.0,51,0.00,,,0.00,meteohub,2013-02-27 16:32:00,
2013-02-27 10:37:00,52.3,34.7,30.09,North,0,1.0,9.0,51,0.00,,,0.00,meteohub,2013-02-27 16:37:00,
2013-02-27 10:47:00,53.1,36.0,30.09,NNE,15,5.0,9.0,52,0.00,,,0.00,meteohub,2013-02-27 16:47:00,
2013-02-27 10:52:00,53.2,35.1,30.09,NNW,334,3.0,9.0,50,0.00,,,0.00,meteohub,2013-02-27 16:52:00,
2013-02-27 10:57:00,54.1,36.0,30.09,NW,323,3.0,9.0,50,0.00,,,0.00,meteohub,2013-02-27 16:57:00,
2013-02-27 11:02:00,54.5,35.2,30.09,NNW,327,6.0,10.0,48,0.00,,,0.00,meteohub,2013-02-27 17:02:00,
2013-02-27 11:12:00,54.7,35.4,30.09,NW,310,5.0,10.0,48,0.00,,,0.00,meteohub,2013-02-27 17:12:00,
2013-02-27 11:22:00,54.7,35.4,30.10,NNW,329,5.0,10.0,48,0.00,,,0.00,meteohub,2013-02-27 17:22:00,
2013-02-27 11:27:00,54.9,36.1,30.10,WNW,291,4.0,10.0,49,0.00,,,0.00,meteohub,2013-02-27 17:27:00,
2013-02-27 11:32:00,54.9,35.1,30.10,WNW,287,4.0,10.0,47,0.00,,,0.00,meteohub,2013-02-27 17:32:00,
2013-02-27 11:37:00,55.2,35.4,30.10,NNW,329,5.0,10.0,47,0.00,,,0.00,meteohub,2013-02-27 17:37:00,
2013-02-27 11:42:00,55.2,34.9,30.09,NNE,13,4.0,10.0,46,0.00,,,0.00,meteohub,2013-02-27 17:42:00,
2013-02-27 11:47:00,55.8,35.8,30.09,NNW,343,5.0,10.0,47,0.00,,,0.00,meteohub,2013-02-27 17:47:00,
2013-02-27 11:52:00,56.5,36.0,30.09,NNW,338,3.0,10.0,46,0.00,,,0.00,meteohub,2013-02-27 17:52:00,
2013-02-27 12:02:00,57.0,34.7,30.09,NNW,335,5.0,10.0,43,0.00,,,0.00,meteohub,2013-02-27 18:02:00,
2013-02-27 12:07:00,57.4,35.6,30.09,NW,311,7.0,11.0,44,0.00,,,0.00,meteohub,2013-02-27 18:07:00,
2013-02-27 12:12:00,57.6,35.8,30.09,WSW,258,6.0,12.0,44,0.00,,,0.00,meteohub,2013-02-27 18:12:00,
2013-02-27 12:22:00,57.7,34.9,30.09,WNW,292,5.0,11.0,42,0.00,,,0.00,meteohub,2013-02-27 18:22:00,
2013-02-27 12:27:00,57.6,33.4,30.09,West,266,8.0,11.0,40,0.00,,,0.00,meteohub,2013-02-27 18:27:00,
2013-02-27 12:32:00,57.4,33.3,30.09,NW,313,5.0,11.0,40,0.00,,,0.00,meteohub,2013-02-27 18:32:00,
2013-02-27 12:42:00,58.5,33.6,30.09,North,355,4.0,12.0,39,0.00,,,0.00,meteohub,2013-02-27 18:42:00,
2013-02-27 12:47:00,58.6,34.3,30.09,West,259,4.0,13.0,40,0.00,,,0.00,meteohub,2013-02-27 18:47:00,
2013-02-27 12:52:00,58.8,34.5,30.09,WNW,297,4.0,13.0,40,0.00,,,0.00,meteohub,2013-02-27 18:52:00,
2013-02-27 12:57:00,58.8,33.3,30.09,SSW,209,7.0,13.0,38,0.00,,,0.00,meteohub,2013-02-27 18:57:00,
2013-02-27 13:07:00,59.2,32.2,30.08,North,355,1.0,11.0,36,0.00,,,0.00,meteohub,2013-02-27 19:07:00,
2013-02-27 13:12:00,59.4,33.8,30.08,NW,308,8.0,14.0,38,0.00,,,0.00,meteohub,2013-02-27 19:12:00,
2013-02-27 13:17:00,59.5,34.5,30.08,NNW,331,3.0,14.0,39,0.00,,,0.00,meteohub,2013-02-27 19:17:00,
2013-02-27 13:27:00,59.4,35.1,30.08,NW,305,5.0,12.0,40,0.00,,,0.00,meteohub,2013-02-27 19:27:00,
2013-02-27 13:32:00,59.5,34.5,30.08,WSW,238,1.0,12.0,39,0.00,,,0.00,meteohub,2013-02-27 19:32:00,
2013-02-27 13:37:00,60.1,34.3,30.08,SW,233,9.0,12.0,38,0.00,,,0.00,meteohub,2013-02-27 19:37:00,
2013-02-27 13:42:00,60.4,33.4,30.07,WSW,237,6.0,16.0,36,0.00,,,0.00,meteohub,2013-02-27 19:42:00,
2013-02-27 13:47:00,60.8,32.9,30.08,WSW,258,6.0,16.0,35,0.00,,,0.00,meteohub,2013-02-27 19:47:00,
2013-02-27 13:57:00,60.4,32.0,30.07,West,281,8.0,16.0,34,0.00,,,0.00,meteohub,2013-02-27 19:57:00,
2013-02-27 14:02:00,60.6,32.2,30.07,West,262,6.0,16.0,34,0.00,,,0.00,meteohub,2013-02-27 20:02:00,
2013-02-27 14:07:00,60.4,28.9,30.08,WNW,284,8.0,16.0,30,0.00,,,0.00,meteohub,2013-02-27 20:07:00,
2013-02-27 14:12:00,59.5,28.9,30.08,West,269,7.0,17.0,31,0.00,,,0.00,meteohub,2013-02-27 20:12:00,
2013-02-27 14:17:00,59.2,28.6,30.08,WNW,297,11.0,17.0,31,0.00,,,0.00,meteohub,2013-02-27 20:17:00,
2013-02-27 14:22:00,59.4,28.8,30.08,West,280,13.0,17.0,31,0.00,,,0.00,meteohub,2013-02-27 20:22:00,
2013-02-27 14:27:00,59.4,30.2,30.08,WNW,296,7.0,17.0,33,0.00,,,0.00,meteohub,2013-02-27 20:27:00,
2013-02-27 14:32:00,59.5,28.9,30.08,NW,316,6.0,17.0,31,0.00,,,0.00,meteohub,2013-02-27 20:32:00,
2013-02-27 14:42:00,59.4,27.1,30.08,West,276,3.0,17.0,29,0.00,,,0.00,meteohub,2013-02-27 20:42:00,
2013-02-27 14:47:00,59.4,27.9,30.08,WNW,302,4.0,17.0,30,0.00,,,0.00,meteohub,2013-02-27 20:47:00,
2013-02-27 14:52:00,59.2,27.7,30.08,WNW,303,6.0,15.0,30,0.00,,,0.00,meteohub,2013-02-27 20:52:00,
2013-02-27 14:57:00,59.2,27.0,30.08,NW,314,7.0,18.0,29,0.00,,,0.00,meteohub,2013-02-27 20:57:00,
2013-02-27 15:02:00,59.4,26.2,30.08,WNW,296,11.0,18.0,28,0.00,,,0.00,meteohub,2013-02-27 21:02:00,
2013-02-27 15:12:00,59.5,28.9,30.08,NNW,340,8.0,18.0,31,0.00,,,0.00,meteohub,2013-02-27 21:12:00,
2013-02-27 15:17:00,59.5,26.4,30.08,NW,321,5.0,13.0,28,0.00,,,0.00,meteohub,2013-02-27 21:17:00,
2013-02-27 15:27:00,59.4,27.1,30.08,NW,325,4.0,16.0,29,0.00,,,0.00,meteohub,2013-02-27 21:27:00,
2013-02-27 15:32:00,59.5,28.0,30.08,West,273,7.0,16.0,30,0.00,,,0.00,meteohub,2013-02-27 21:32:00,
2013-02-27 15:42:00,59.2,27.7,30.09,West,279,8.0,16.0,30,0.00,,,0.00,meteohub,2013-02-27 21:42:00,
2013-02-27 15:47:00,59.2,28.6,30.08,NW,315,3.0,16.0,31,0.00,,,0.00,meteohub,2013-02-27 21:47:00,
2013-02-27 15:57:00,58.5,27.1,30.09,West,275,6.0,18.0,30,0.00,,,0.00,meteohub,2013-02-27 21:57:00,
2013-02-27 16:02:00,58.3,27.9,30.09,West,267,4.0,18.0,31,0.00,,,0.00,meteohub,2013-02-27 22:02:00,
2013-02-27 16:07:00,57.9,28.2,30.08,WNW,287,3.0,17.0,32,0.00,,,0.00,meteohub,2013-02-27 22:07:00,
2013-02-27 16:12:00,58.1,28.4,30.08,West,259,5.0,17.0,32,0.00,,,0.00,meteohub,2013-02-27 22:12:00,
2013-02-27 16:22:00,57.6,28.6,30.08,NW,307,8.0,14.0,33,0.00,,,0.00,meteohub,2013-02-27 22:22:00,
2013-02-27 16:27:00,57.4,29.3,30.08,West,280,8.0,11.0,34,0.00,,,0.00,meteohub,2013-02-27 22:27:00,
2013-02-27 16:32:00,57.0,28.9,30.09,WNW,302,4.0,14.0,34,0.00,,,0.00,meteohub,2013-02-27 22:32:00,
2013-02-27 16:42:00,56.7,29.3,30.09,NNW,331,7.0,14.0,35,0.00,,,0.00,meteohub,2013-02-27 22:42:00,
2013-02-27 16:52:00,56.1,29.5,30.09,West,271,10.0,12.0,36,0.00,,,0.00,meteohub,2013-02-27 22:52:00,
2013-02-27 17:02:00,55.9,30.0,30.09,NW,322,3.0,12.0,37,0.00,,,0.00,meteohub,2013-02-27 23:02:00,
2013-02-27 17:07:00,55.9,30.0,30.09,NW,305,6.0,11.0,37,0.00,,,0.00,meteohub,2013-02-27 23:07:00,
2013-02-27 17:12:00,55.8,29.1,30.09,West,259,7.0,11.0,36,0.00,,,0.00,meteohub,2013-02-27 23:12:00,
2013-02-27 17:17:00,55.6,29.7,30.09,WNW,283,5.0,11.0,37,0.00,,,0.00,meteohub,2013-02-27 23:17:00,
2013-02-27 17:22:00,55.4,29.5,30.10,WSW,248,3.0,14.0,37,0.00,,,0.00,meteohub,2013-02-27 23:22:00,
2013-02-27 17:27:00,55.2,29.5,30.09,WNW,301,7.0,14.0,37,0.00,,,0.00,meteohub,2013-02-27 23:27:00,
2013-02-27 17:37:00,54.9,29.1,30.09,NNW,329,4.0,13.0,37,0.00,,,0.00,meteohub,2013-02-27 23:37:00,
2013-02-27 17:47:00,54.1,29.1,30.09,NNW,336,7.0,12.0,38,0.00,,,0.00,meteohub,2013-02-27 23:47:00,
2013-02-27 17:52:00,53.8,28.8,30.10,WNW,286,10.0,12.0,38,0.00,,,0.00,meteohub,2013-02-27 23:52:00,
2013-02-27 18:02:00,53.2,28.9,30.10,West,275,6.0,11.0,39,0.00,,,0.00,meteohub,2013-02-28 00:02:00,
2013-02-27 18:07:00,52.9,28.6,30.10,WNW,289,2.0,11.0,39,0.00,,,0.00,meteohub,2013-02-28 00:07:00,
2013-02-27 18:17:00,52.3,29.3,30.11,West,279,3.0,9.0,41,0.00,,,0.00,meteohub,2013-02-28 00:17:00,
2013-02-27 18:22:00,52.0,28.9,30.11,WNW,294,4.0,9.0,41,0.00,,,0.00,meteohub,2013-02-28 00:22:00,
2013-02-27 18:32:00,51.3,29.5,30.11,NW,309,4.0,8.0,43,0.00,,,0.00,meteohub,2013-02-28 00:32:00,
2013-02-27 18:42:00,50.5,29.5,30.11,West,279,3.0,8.0,44,0.00,,,0.00,meteohub,2013-02-28 00:42:00,
2013-02-27 18:52:00,50.2,29.7,30.11,West,269,2.0,6.0,45,0.00,,,0.00,meteohub,2013-02-28 00:52:00,
2013-02-27 19:02:00,49.5,29.5,30.12,West,277,2.0,6.0,46,0.00,,,0.00,meteohub,2013-02-28 01:02:00,
2013-02-27 19:07:00,48.9,29.1,30.11,West,261,1.0,5.0,46,0.00,,,0.00,meteohub,2013-02-28 01:07:00,
2013-02-27 19:17:00,48.2,29.5,30.12,West,261,1.0,4.0,48,0.00,,,0.00,meteohub,2013-02-28 01:17:00,
2013-02-27 19:27:00,47.1,29.5,30.12,West,266,1.0,3.0,50,0.00,,,0.00,meteohub,2013-02-28 01:27:00,
2013-02-27 19:32:00,46.8,29.1,30.12,West,266,3.0,4.0,50,0.00,,,0.00,meteohub,2013-02-28 01:32:00,
2013-02-27 19:37:00,46.2,29.1,30.12,West,266,3.0,4.0,51,0.00,,,0.00,meteohub,2013-02-28 01:37:00,
2013-02-27 19:42:00,46.0,28.9,30.12,West,275,2.0,4.0,51,0.00,,,0.00,meteohub,2013-02-28 01:42:00,
2013-02-27 19:47:00,45.9,28.2,30.12,West,273,2.0,4.0,50,0.00,,,0.00,meteohub,2013-02-28 01:47:00,
2013-02-27 19:52:00,45.9,27.9,30.12,West,276,2.0,5.0,49,0.00,,,0.00,meteohub,2013-02-28 01:52:00,
2013-02-27 20:02:00,46.0,27.5,30.13,West,269,1.0,7.0,48,0.00,,,0.00,meteohub,2013-02-28 02:02:00,
2013-02-27 20:12:00,46.0,27.0,30.13,West,262,3.0,5.0,47,0.00,,,0.00,meteohub,2013-02-28 02:12:00,
2013-02-27 20:22:00,46.0,25.9,30.13,WSW,256,3.0,5.0,45,0.00,,,0.00,meteohub,2013-02-28 02:22:00,
2013-02-27 20:27:00,46.0,26.4,30.14,West,279,3.0,5.0,46,0.00,,,0.00,meteohub,2013-02-28 02:27:00,
2013-02-27 20:32:00,46.0,25.9,30.14,West,272,5.0,6.0,45,0.00,,,0.00,meteohub,2013-02-28 02:32:00,
2013-02-27 20:37:00,46.0,25.9,30.14,WNW,289,4.0,7.0,45,0.00,,,0.00,meteohub,2013-02-28 02:37:00,
2013-02-27 20:42:00,45.9,25.7,30.14,WNW,295,3.0,7.0,45,0.00,,,0.00,meteohub,2013-02-28 02:42:00,
2013-02-27 20:52:00,46.2,25.0,30.15,West,279,6.0,9.0,43,0.00,,,0.00,meteohub,2013-02-28 02:52:00,
2013-02-27 20:57:00,46.2,25.0,30.15,NNW,333,4.0,12.0,43,0.00,,,0.00,meteohub,2013-02-28 02:57:00,
2013-02-27 21:02:00,46.4,25.2,30.15,West,267,4.0,12.0,43,0.00,,,0.00,meteohub,2013-02-28 03:02:00,
2013-02-27 21:07:00,46.4,25.7,30.15,WNW,302,4.0,12.0,44,0.00,,,0.00,meteohub,2013-02-28 03:07:00,
2013-02-27 21:12:00,46.4,25.2,30.15,WNW,288,7.0,12.0,43,0.00,,,0.00,meteohub,2013-02-28 03:12:00,
2013-02-27 21:17:00,46.4,25.7,30.16,NW,306,3.0,12.0,44,0.00,,,0.00,meteohub,2013-02-28 03:17:00,
2013-02-27 21:22:00,46.2,25.5,30.16,NW,305,3.0,10.0,44,0.00,,,0.00,meteohub,2013-02-28 03:22:00,
2013-02-27 21:27:00,46.0,25.3,30.16,WNW,302,3.0,10.0,44,0.00,,,0.00,meteohub,2013-02-28 03:27:00,
2013-02-27 21:32:00,46.0,25.3,30.16,NW,323,3.0,10.0,44,0.00,,,0.00,meteohub,2013-02-28 03:32:00,
2013-02-27 21:37:00,46.0,25.9,30.16,WNW,301,6.0,10.0,45,0.00,,,0.00,meteohub,2013-02-28 03:37:00,
2013-02-27 21:42:00,45.9,25.7,30.16,WNW,301,7.0,9.0,45,0.00,,,0.00,meteohub,2013-02-28 03:42:00,
2013-02-27 21:52:00,45.7,25.5,30.17,WNW,298,3.0,12.0,45,0.00,,,0.00,meteohub,2013-02-28 03:52:00,
2013-02-27 21:57:00,45.5,25.3,30.17,NNW,332,3.0,12.0,45,0.00,,,0.00,meteohub,2013-02-28 03:57:00,
2013-02-27 22:02:00,45.1,25.5,30.17,WNW,286,4.0,12.0,46,0.00,,,0.00,meteohub,2013-02-28 04:02:00,
2013-02-27 22:07:00,45.0,25.3,30.17,NW,316,5.0,11.0,46,0.00,,,0.00,meteohub,2013-02-28 04:07:00,
2013-02-27 22:12:00,44.8,25.7,30.17,NW,317,6.0,11.0,47,0.00,,,0.00,meteohub,2013-02-28 04:12:00,
2013-02-27 22:17:00,44.6,26.1,30.17,SSW,196,2.0,9.0,48,0.00,,,0.00,meteohub,2013-02-28 04:17:00,
2013-02-27 22:22:00,44.2,25.7,30.17,NNW,340,2.0,9.0,48,0.00,,,0.00,meteohub,2013-02-28 04:22:00,
2013-02-27 22:27:00,44.1,26.1,30.18,West,275,6.0,9.0,49,0.00,,,0.00,meteohub,2013-02-28 04:27:00,
2013-02-27 22:37:00,43.7,26.2,30.18,WNW,296,3.0,11.0,50,0.00,,,0.00,meteohub,2013-02-28 04:37:00,
2013-02-27 22:47:00,43.5,26.6,30.18,NW,304,6.0,13.0,51,0.00,,,0.00,meteohub,2013-02-28 04:47:00,
2013-02-27 22:52:00,43.3,27.0,30.18,West,274,4.0,13.0,52,0.00,,,0.00,meteohub,2013-02-28 04:52:00,
2013-02-27 22:57:00,43.2,26.8,30.18,West,277,2.0,10.0,52,0.00,,,0.00,meteohub,2013-02-28 04:57:00,
2013-02-27 23:02:00,43.0,26.6,30.18,WSW,251,4.0,10.0,52,0.00,,,0.00,meteohub,2013-02-28 05:02:00,
2013-02-27 23:12:00,42.6,27.1,30.18,WNW,283,4.0,9.0,54,0.00,,,0.00,meteohub,2013-02-28 05:12:00,
2013-02-27 23:17:00,42.4,27.0,30.18,WNW,290,2.0,9.0,54,0.00,,,0.00,meteohub,2013-02-28 05:17:00,
2013-02-27 23:22:00,42.3,26.8,30.18,WNW,297,2.0,7.0,54,0.00,,,0.00,meteohub,2013-02-28 05:22:00,
2013-02-27 23:32:00,41.7,27.1,30.19,NW,313,4.0,7.0,56,0.00,,,0.00,meteohub,2013-02-28 05:32:00,
2013-02-27 23:37:00,41.5,27.5,30.19,NW,309,5.0,9.0,57,0.00,,,0.00,meteohub,2013-02-28 05:37:00,
2013-02-27 23:42:00,41.5,27.5,30.19,NW,325,5.0,9.0,57,0.00,,,0.00,meteohub,2013-02-28 05:42:00,
2013-02-27 23:47:00,41.4,27.7,30.19,WNW,298,3.0,11.0,58,0.00,,,0.00,meteohub,2013-02-28 05:47:00,
2013-02-27 23:52:00,41.2,27.5,30.19,NW,315,5.0,11.0,58,0.00,,,0.00,meteohub,2013-02-28 05:52:00,